Regional Weather Roundup
Issued by NWS State College, PA

Home | Current Version | Previous Version | Graphics & Text | Print | Product List | Glossary Off
Versions: 1 2 3 4 5 6 7 8 9 10 11 12 13 14 15 16 17 18 19 20 21 22 23 24 25 26 27 28 29 30 31 32 33 34 35 36 37 38 39 40 41 42 43 44 45 46 47 48 49 50

855
ASUS41 KCTP 071403
RWRCTP

REGIONAL WEATHER ROUNDUP
NATIONAL WEATHER SERVICE STATE COLLEGE PA
900 AM EST SUN FEB 07 2016

Note: "fair" indicates few or no clouds below 12,000 feet with no
significant weather and/or obstructions to visibility.

* = STATION THAT DOES NOT REPORT PRECIPITATION /E.G. RAIN...SNOW...ETC/
    THUNDER OR FOG.

PAZ002>004-007>009-013>016-020>023-029>032-071500-
WESTERN PENNSYLVANIA

CITY           SKY/WX    TMP DP  RH WIND       PRES   REMARKS
ERIE           MOSUNNY   33  21  61 S13       30.05F
MEADVILLE      SUNNY     32  18  56 VRB6      30.04F
FRANKLIN*      SUNNY     28  18  64 S8        30.09F
NEW CASTLE     CLOUDY    28  19  69 VRB5      30.10F
BEAVER COUNTY  NOT AVBL
BUTLER*        PTSUNNY   28  18  64 S7        30.14F
PITTSBURGH INT CLOUDY    29  17  61 S6        30.12S
PITTSBURGH     MOSUNNY   32  18  56 S12       30.12F
INDIANA*       SUNNY     30  21  69 CALM      30.15F
LATROBE        SUNNY     27  21  80 CALM      30.14F
WASHINGTON CO* CLOUDY    30  19  64 SW3       30.13S
$$

PAZ004>006-010>012-017>019-024>028-033>037-041-042-045-046-049>053-071500-
CENTRAL PENNSYLVANIA

CITY           SKY/WX    TMP DP  RH WIND       PRES   REMARKS
BRADFORD       SUNNY     27  16  63 S7        30.05S
DUBOIS         SUNNY     29  16  58 S5        30.08S
CLEARFIELD     SUNNY     24  19  81 CALM      30.13R
JOHNSTOWN      SUNNY     29  14  53 W7        30.07F
ALTOONA        SUNNY     33  17  51 CALM      30.11F
STATE COLLEGE  SUNNY     32  19  59 CALM      30.13F
WILLIAMSPORT   SUNNY     27  21  78 CALM      30.18R
SELINSGROVE    SUNNY     28  23  81 CALM      30.17F
FT INDIANTOWN  SUNNY     27  25  91 S2        30.16F
CAPITAL CITY   SUNNY     29  22  75 SE6       30.18S
HARRISBURG     MOSUNNY   29  23  78 E5        30.18R
YORK           SUNNY     28  22  78 E3        30.17S
$$

PAZ038>040-043-044-047-048-054-055-060>062-067>071-071500-
EASTERN PENNSYLVANIA

CITY           SKY/WX    TMP DP  RH WIND       PRES   REMARKS
SCRANTON       MOSUNNY   29  20  69 CALM      30.15R
MOUNT POCONO   SUNNY     32  17  54 NW8       30.08F
ALLENTOWN      SUNNY     29  22  75 CALM      30.17F
QUAKERTOWN*    SUNNY     30  25  80 CALM      30.17F
READING        SUNNY     28  22  78 CALM      30.17S
LANCASTER      SUNNY     28  24  85 S3        30.18R
COATESVILLE    SUNNY     30  28  93 CALM      30.17S
POTTSTOWN      SUNNY     28  23  81 CALM      30.19S
BLUE BELL        N/A     32  27  80 CALM      30.18R
DOYLESTOWN     SUNNY     32  25  75 CALM      30.17R
WILLOW GROVE   NOT AVBL
NORTH PHILA    SUNNY     36  28  73 CALM      30.21R
PHILADELPHIA   CLOUDY    35  28  75 CALM      30.20S
$$




USA.gov is the U.S. government's official web portal to all federal, state and local government web resources and services.